Location: Brienzwiler
(46.7508°N, 8.1014°E)
Time: 01:43:19
(UTC+00:00)

GEOS 3 Rocket - Pass Details

Date: 05 July 2020
Orbit: 771 x 848 km, 115.0° (Epoch: 11 August)

Event Time Altitude Azimuth Distance (km) Brightness Sun altitude
Rises 20:55:55 0° 38° (NE) 3,410 7.1 -12.1°
Reaches altitude 10° 20:58:15 10° 38° (NE) 2,476 6.3 -12.3°
Maximum altitude 21:03:40 83° 312° (NW) 861 3.8 -12.9°
Drops below altitude 10° 21:09:03 10° 225° (SW) 2,464 6.0 -13.4°
Sets 21:11:22 0° 224° (SW) 3,391 6.7 -13.6°
